Location: Coleto Creek Park and Reservoir
(28.7196°N, 97.1740°W)
Time: 14:56:33
(UTC-05:00)

HST - Visible Passes

Search period start: 21 October 2014 00:00
Search period end: 31 October 2014 00:00
Orbit: 546 x 550 km, 28.5° (Epoch: 20 October)

Date Brightness Start Highest point End Pass type
(mag) Time Alt. Az. Time Alt. Az. Time Alt. Az.
21 Oct 2.9 20:15:23 10° S 20:17:29 15° SSE 20:17:29 15° SSE visible
22 Oct 2.5 20:07:23 10° SSW 20:10:26 20° SSE 20:10:52 19° SSE visible
23 Oct 2.1 19:59:38 10° SSW 20:03:06 25° SSE 20:04:13 23° SE visible
24 Oct 1.8 19:52:02 10° SW 19:55:47 32° SSE 19:57:29 23° ESE visible
24 Oct 4.0 21:32:50 10° WSW 21:33:02 11° WSW 21:33:02 11° WSW visible
25 Oct 1.5 19:44:32 10° SW 19:48:28 41° SSE 19:50:43 22° ESE visible
25 Oct 3.8 21:25:35 10° W 21:26:15 14° W 21:26:15 14° W visible
26 Oct 1.3 19:37:06 10° WSW 19:41:10 50° SSE 19:43:53 19° E visible
26 Oct 3.5 21:18:19 10° W 21:19:26 18° W 21:19:26 18° W visible
27 Oct 1.0 19:29:44 10° WSW 19:33:52 60° SSE 19:37:02 16° E visible
27 Oct 3.2 21:11:04 10° W 21:12:34 22° W 21:12:34 22° W visible
28 Oct 0.9 19:22:24 10° WSW 19:26:34 70° S 19:30:09 14° E visible
28 Oct 2.9 21:03:48 10° W 21:05:41 26° W 21:05:41 26° W visible
29 Oct 0.9 19:15:05 10° W 19:19:17 79° S 19:23:15 11° E visible
29 Oct 2.5 20:56:31 10° W 20:58:48 31° W 20:58:48 31° W visible
30 Oct 0.8 19:07:47 10° W 19:11:59 85° S 19:16:11 10° E visible
30 Oct 2.1 20:49:14 10° W 20:51:55 38° W 20:51:55 38° W visible
